Location: Newark
(33.6439°N, 114.9881°W)
Time: 01:42:29
(UTC+00:00)

Tiros 1 - Pass Details

Date: 21 July 2019
Orbit: 631 x 664 km, 48.4° (Epoch: 23 August)

Event Time Altitude Azimuth Distance (km) Brightness Sun altitude
Rises 20:43:00 0° 272° (W) 2,984 10.7 71.8°
Reaches altitude 10° 20:45:49 10° 288° (WNW) 2,077 10.0 71.3°
Maximum altitude 20:49:33 22° 339° (NNW) 1,442 9.2 70.7°
Drops below altitude 10° 20:53:17 10° 30° (NNE) 2,082 9.7 70.1°
Sets 20:56:07 0° 46° (NE) 2,994 10.4 69.6°
